Wind_Speed
13 14 15 16 16 16 17 16 15 15 14 15 16 16 16 15 14 13 11 9 9 9 10 12 13 14 15 17 20 22 23 23 22 21 19 16 14 12 12 12 12 10 10 11 12 12 12 11 12 13 14 16 17 18 19 20 21 22 23 25 26 27 28 29 29 29 28 26 23 23 23 24 25 26 26 25 25 26 26 27 27 28 28 28 28
12 12 12 13 14 14 14 14 13 12 12 13 14 13 13 12 11 11 12 12 12 12 14 15 16 17 19 20 22 22 22 22 21 19 17 14 13 12 12 13 12 10 9 11 11 12 11 12 12 12 14 16 17 18 19 20 21 22 24 25 27 28 28 29 29 29 28 25 23 22 23 24 24 25 26 25 25 25 25 26 26 26 27 27 27
11 11 12 12 12 12 12 11 10 9 9 10 10 10 11 12 14 15 15 15 15 16 16 17 19 20 21 21 21 21 20 20 18 17 15 13 11 11 11 12 13 10 9 10 11 11 11 11 11 12 14 15 16 18 19 20 21 22 24 25 27 28 28 29 29 28 27 25 23 22 22 23 24 25 25 25 25 24 24 25 25 25 25 25 26
13 13 13 12 12 12 11 11 10 10 10 11 12 13 14 16 17 18 18 18 18 18 19 20 21 21 21 20 19 19 18 17 16 14 13 11 10 10 11 11 12 10 9 10 11 11 11 11 11 12 14 15 16 18 19 20 21 23 24 26 27 28 28 28 28 28 26 25 23 22 22 21 23 24 24 25 24 24 23 23 24 24 24 24 24
19 19 18 17 17 17 17 16 16 15 15 16 16 17 18 19 20 21 21 21 21 21 21 21 21 20 19 18 17 17 16 15 14 12 10 9 9 9 10 10 11 10 9 10 11 11 11 11 11 13 14 15 16 18 19 20 22 23 25 27 28 28 28 28 28 27 26 24 23 22 21 21 21 23 24 24 24 24 23 22 23 24 24 24 24
26 26 25 24 23 23 23 22 21 20 20 19 19 20 21 22 23 24 24 24 23 22 21 20 19 18 17 16 15 14 14 13 11 10 8 7 7 8 9 8 9 9 10 10 11 10 10 10 11 13 14 15 16 18 20 22 23 24 26 27 27 27 27 28 27 26 25 23 22 22 21 21 21 22 23 24 24 24 24 23 22 23 23 24 24
28 29 29 28 28 28 27 26 25 24 23 23 23 24 25 25 25 25 25 24 23 21 20 18 17 16 15 14 13 12 11 10 9 8 7 6 6 7 7 7 8 8 10 10 10 10 9 10 11 12 13 15 17 19 21 23 24 25 26 26 26 26 27 27 27 25 24 23 22 22 22 22 22 22 22 23 24 24 24 23 22 22 22 23 24
28 29 30 30 31 30 30 29 28 27 27 27 27 26 26 26 25 24 23 22 21 19 18 16 15 14 13 12 11 10 9 8 6 5 5 5 5 6 6 6 6 7 9 10 9 9 9 9 10 12 14 16 18 20 22 24 25 25 25 25 24 25 27 27 27 25 23 22 22 22 22 23 23 23 22 22 23 23 23 23 22 21 21 22 23
26 27 29 30 30 30 29 29 28 28 27 27 26 26 25 24 23 22 21 20 18 17 16 15 14 13 12 11 9 8 7 6 4 3 4 4 5 5 5 5 5 6 9 10 8 8 8 8 10 12 15 17 19 20 22 24 25 25 25 24 23 24 26 27 27 25 23 22 22 23 23 24 24 24 23 22 21 22 22 22 21 20 20 21 22
24 26 27 28 28 27 27 26 26 26 25 25 24 23 23 22 21 20 19 17 16 15 14 13 12 11 10 9 7 6 5 4 3 3 3 4 3 4 4 3 4 6 9 9 8 7 7 8 10 13 16 17 18 20 22 24 24 24 24 22 21 23 25 27 28 26 23 23 23 24 25 25 25 24 23 22 21 21 21 21 21 20 19 19 21
23 23 25 25 26 25 25 25 24 24 24 23 22 21 20 19 18 17 16 15 14 13 12 11 10 10 9 8 8 7 6 5 4 3 3 3 3 3 3 3 5 7 9 8 7 6 7 8 11 14 16 17 18 20 22 23 23 24 23 21 20 22 24 26 28 27 24 23 23 25 26 26 25 25 23 22 21 20 21 20 20 19 19 19 21
24 23 23 23 23 23 23 23 22 22 22 21 21 20 19 18 17 17 16 16 16 16 15 15 15 15 14 14 14 13 12 10 9 8 8 7 7 6 5 6 8 9 8 7 7 7 8 10 13 14 15 16 18 20 22 22 23 24 23 20 19 21 23 26 27 26 23 22 24 26 28 28 27 25 24 22 21 21 20 20 19 19 19 19 20
30 28 27 26 26 26 25 24 24 24 24 23 23 22 21 21 21 20 20 20 20 21 20 20 19 19 18 18 18 17 16 15 14 14 13 13 12 10 9 10 10 9 8 7 7 8 10 12 13 14 15 17 19 20 21 21 22 24 22 20 18 20 22 25 26 26 23 22 23 26 28 29 29 27 24 22 22 21 20 19 19 20 20 20 20
31 31 31 31 30 30 30 29 29 29 28 28 27 26 25 24 23 23 22 22 22 21 20 20 19 18 17 17 17 17 16 15 15 16 16 16 15 14 13 13 11 9 7 7 8 10 11 12 13 13 15 17 19 20 20 20 21 23 23 20 18 19 21 23 25 25 23 22 23 25 27 29 30 28 25 23 23 21 20 20 20 20 20 19 18
30 31 31 30 30 30 30 30 29 29 28 28 27 26 25 24 23 23 22 22 22 22 21 20 20 19 18 18 18 17 17 16 17 18 18 18 18 16 15 13 11 9 7 7 9 10 11 11 12 14 15 17 18 19 19 19 20 21 22 21 18 18 19 22 24 24 22 22 22 23 25 28 29 28 25 25 24 22 20 20 20 20 19 18 18
30 30 30 29 29 29 29 28 28 27 27 27 26 26 25 24 24 23 23 23 24 23 23 23 23 22 21 21 21 20 19 19 19 19 19 19 18 17 15 13 11 9 8 8 8 9 10 11 13 15 16 17 17 18 19 18 18 19 20 20 18 17 18 21 24 23 21 20 21 22 24 26 28 28 27 26 25 23 22 21 21 20 18 18 19
28 28 28 28 28 28 28 27 27 27 26 26 25 25 25 24 23 23 23 23 23 23 23 23 23 22 22 22 22 22 21 21 20 20 19 19 18 16 14 13 11 10 8 8 8 9 10 13 15 16 16 17 17 17 18 19 18 18 19 19 18 18 19 21 23 23 19 18 20 22 23 25 28 28 29 29 27 25 24 23 21 20 20 21 22
27 27 27 27 27 27 26 26 25 25 24 24 23 23 23 22 21 22 22 22 21 21 21 21 21 21 20 20 21 21 21 20 20 19 18 18 16 15 13 12 11 10 9 9 9 10 12 14 15 16 16 17 17 17 18 19 19 18 19 18 18 18 20 22 23 23 20 17 19 21 24 26 28 29 30 31 30 28 26 25 24 23 22 23 24
28 27 27 27 26 26 25 24 24 23 22 21 21 21 20 20 19 20 20 20 20 19 19 19 19 19 19 19 19 19 19 19 19 18 18 17 15 14 13 12 11 11 11 11 11 12 13 14 15 16 16 16 17 17 18 19 18 18 18 19 18 19 21 23 23 22 21 20 21 23 25 27 28 30 32 32 32 31 29 28 26 25 25 25 25
28 28 28 27 26 26 25 24 23 22 21 20 19 19 19 18 18 18 18 19 18 18 18 18 18 18 18 18 17 17 18 18 18 17 16 15 14 13 12 12 11 11 11 11 11 12 12 13 14 15 16 16 17 17 17 18 18 18 18 19 20 22 23 24 24 24 24 25 26 26 27 28 30 32 33 33 33 33 31 30 29 28 27 26 26
29 28 28 27 27 26 25 24 23 22 21 20 20 19 19 18 18 18 18 18 17 17 17 17 17 17 16 16 16 16 16 16 16 15 15 14 13 12 11 11 10 10 10 10 11 12 12 13 14 15 16 16 16 17 17 17 18 19 20 22 23 25 25 26 27 27 29 30 30 30 30 31 33 35 36 36 35 34 33 31 30 29 28 27 27
29 29 28 28 27 26 25 25 24 23 22 22 21 20 20 19 18 18 18 17 17 17 16 16 16 15 15 15 15 15 15 15 14 14 13 12 11 11 10 10 9 9 10 11 12 12 12 13 14 15 15 16 17 17 17 18 20 21 23 25 27 28 29 30 30 31 32 33 33 34 35 36 37 38 38 38 37 37 36 34 32 31 30 29 28
30 29 28 28 27 26 26 25 25 25 24 23 22 22 21 20 19 18 18 17 17 17 16 16 15 15 14 14 14 14 14 13 13 12 11 11 10 10 9 9 10 10 10 11 12 12 12 12 13 14 15 16 17 17 19 21 23 25 27 29 30 32 32 33 33 33 34 36 36 37 38 39 40 41 41 41 40 40 39 38 36 34 33 32 30
30 30 29 28 28 27 27 27 27 26 26 25 24 23 23 22 20 19 18 17 17 16 16 15 15 14 14 14 13 13 12 12 11 11 10 10 10 9 9 9 10 10 11 11 12 12 13 13 14 15 16 17 19 20 22 25 27 29 31 32 33 34 34 34 34 35 37 38 39 40 41 42 43 43 44 44 44 44 44 43 41 39 37 35 33
30 30 30 30 29 29 28 28 28 28 27 27 26 26 25 24 23 22 20 19 18 17 16 15 15 14 14 13 13 12 12 11 11 10 10 10 10 10 10 10 11 11 12 12 13 14 15 15 15 16 17 19 21 24 26 28 30 32 33 34 35 35 35 36 37 38 39 41 42 43 44 45 46 46 46 47 47 48 48 48 46 44 42 40 38
30 30 30 30 31 30 30 30 29 29 29 28 28 27 27 26 25 24 23 22 21 19 18 17 16 15 15 14 14 13 13 12 12 11 11 11 11 11 12 12 13 13 14 14 15 16 16 17 17 18 20 22 25 28 30 32 33 34 34 35 35 36 37 37 38 40 42 43 45 46 47 48 48 49 50 50 51 51 51 51 51 50 48 45 43
29 30 30 30 31 31 31 30 30 30 30 29 29 28 28 27 27 26 25 24 23 22 21 20 20 19 18 17 17 16 15 15 14 14 14 14 14 14 15 15 16 16 17 17 18 18 19 20 21 23 25 27 30 32 33 34 35 35 35 36 36 37 38 38 40 41 43 44 46 47 48 49 50 51 52 53 53 54 54 54 53 53 52 51 49
29 29 30 30 30 30 31 30 30 30 30 29 29 29 28 28 27 27 26 25 24 24 23 23 23 22 22 21 21 20 20 19 18 18 17 17 17 17 18 18 19 19 20 20 20 21 22 24 25 28 30 32 33 34 35 35 36 36 36 36 37 37 38 39 40 42 43 44 45 46 47 48 49 51 52 52 53 54 54 55 55 55 54 53 52
27 28 29 29 30 30 30 29 29 29 29 29 29 28 28 28 27 27 27 27 26 26 25 25 25 25 25 25 25 24 24 24 23 22 21 21 20 20 21 21 22 22 23 23 24 25 26 28 30 32 33 34 35 35 35 35 35 36 36 36 36 37 38 39 40 41 42 42 43 44 45 46 47 48 49 50 51 52 52 53 54 54 54 54 54
24 25 27 27 28 28 28 28 28 28 28 28 28 28 28 28 27 27 27 27 27 27 27 27 27 28 28 28 28 28 27 27 26 26 25 24 24 24 24 25 26 26 27 27 28 29 31 32 34 35 36 36 36 36 35 35 35 35 35 35 36 37 37 38 39 40 40 40 41 41 42 42 43 44 45 46 47 48 49 50 51 51 52 53 53
21 22 23 25 26 26 27 27 27 27 27 27 27 27 27 27 27 28 27 27 28 28 28 29 29 29 30 30 30 30 30 29 29 28 28 28 28 28 28 29 30 30 31 31 32 33 34 36 36 37 36 36 36 35 35 35 35 35 36 36 36 36 36 37 37 38 38 38 38 38 39 39 40 40 41 42 43 43 44 45 46 47 48 49 50
18 19 20 21 23 23 24 25 25 26 26 26 26 26 26 27 27 27 27 27 28 28 28 29 30 30 31 31 31 31 31 31 30 30 30 30 30 30 31 31 32 33 33 34 35 36 37 37 37 37 36 36 35 35 35 36 36 36 35 35 35 35 35 35 35 35 35 35 36 36 37 37 37 37 37 37 38 39 40 41 41 42 43 44 45
16 17 18 19 19 20 21 22 23 24 24 25 25 25 25 25 26 26 27 27 27 28 28 29 29 30 30 30 31 31 31 31 30 30 30 30 30 31 31 32 33 33 34 34 35 36 37 37 37 36 36 35 35 35 35 35 34 34 33 33 33 33 32 32 32 31 32 33 34 34 34 35 35 35 35 35 35 36 36 37 37 37 38 39 40
15 15 16 17 18 18 18 19 20 21 22 22 23 23 24 24 24 25 25 26 26 27 27 27 28 28 28 29 29 29 29 29 29 29 29 30 30 30 31 32 33 33 33 34 34 34 35 35 35 34 34 33 33 33 33 32 31 31 30 30 30 30 29 29 29 29 30 31 31 31 32 32 33 33 33 33 33 33 34 34 34 34 35 35 35
14 14 14 15 16 16 16 17 18 18 19 20 20 21 22 22 22 23 23 24 25 25 25 25 25 26 26 26 26 27 27 27 27 27 28 28 28 29 29 30 31 33 33 33 33 32 32 32 32 32 31 31 30 30 29 28 27 27 26 26 25 25 25 25 25 26 27 28 29 29 29 30 30 30 31 31 31 31 32 32 32 33 33 33 33
12 12 11 12 13 15 15 15 16 17 17 17 18 19 20 20 21 21 21 21 22 22 22 22 22 23 23 23 24 24 24 25 25 26 26 26 27 27 28 29 31 32 32 32 32 31 31 30 29 29 28 27 26 26 25 24 23 22 21 21 21 21 21 21 22 23 24 25 26 26 27 27 28 28 28 28 29 29 29 30 30 31 31 32 32
10 11 11 10 10 12 13 14 14 15 16 16 17 17 18 18 19 19 19 19 19 19 19 19 19 19 20 20 21 21 22 23 23 23 24 25 25 26 26 27 29 30 30 30 30 30 29 28 27 26 24 24 23 22 21 20 19 17 16 16 16 16 16 17 18 19 20 22 23 24 25 25 26 26 26 26 26 27 27 28 28 29 29 30 30
6 8 10 10 10 10 11 12 12 13 14 15 16 16 17 17 17 17 17 16 16 16 16 16 16 16 16 17 18 19 20 20 21 21 22 22 23 24 24 25 26 27 27 28 28 28 27 26 25 23 21 20 20 19 17 16 15 14 13 13 12 12 13 14 15 16 18 20 21 22 23 24 24 24 24 25 25 26 26 27 27 27 27 28 28
5 5 6 8 9 9 10 10 10 11 12 13 14 15 15 16 16 15 15 14 14 14 13 13 13 13 12 13 15 16 17 18 19 19 20 21 21 21 22 22 23 24 25 25 25 25 24 24 23 21 18 17 15 14 13 12 11 11 11 11 10 10 11 12 13 14 16 17 19 20 21 23 24 24 24 24 24 25 25 26 26 26 26 26 26
8 7 5 5 7 8 8 8 8 9 10 11 12 13 13 13 14 14 14 13 12 11 11 11 10 10 9 9 10 12 14 16 17 18 19 19 19 19 20 20 21 22 22 23 22 22 21 20 19 17 15 14 12 11 9 8 7 7 8 8 9 9 10 11 12 13 14 15 17 18 19 21 23 24 24 24 24 24 25 25 25 25 25 25 25
10 10 10 6 3 5 6 6 6 6 6 7 9 10 10 11 11 12 12 12 11 10 9 8 7 7 7 6 6 7 10 12 14 16 17 18 18 18 18 19 20 20 20 19 18 17 16 15 14 12 11 9 8 6 4 3 3 3 5 5 7 8 9 10 11 12 13 14 15 16 17 18 20 21 22 23 23 23 23 24 24 24 24 24 24
14 13 14 12 7 2 3 4 4 5 4 4 4 6 7 8 9 10 10 11 11 10 8 7 5 5 4 4 2 2 4 7 10 13 15 17 17 17 17 17 18 18 17 15 15 14 12 10 8 7 6 5 3 2 1 2 3 4 6 6 6 7 8 9 10 11 12 13 14 15 15 16 17 19 20 21 21 22 22 22 23 23 23 23 23
19 16 16 15 11 8 6 3 4 4 4 4 3 2 3 5 6 7 8 9 9 9 8 7 5 3 2 2 3 2 2 3 5 8 10 13 14 16 16 16 17 16 15 13 13 12 10 8 6 5 5 4 4 4 5 5 7 8 8 9 9 10 10 10 11 12 13 14 14 15 16 17 18 19 20 21 21 21 21 22 21 21 21 21 21
21 19 17 15 12 11 11 7 4 3 4 6 6 5 3 2 3 4 6 6 7 7 7 6 5 4 2 2 3 5 5 6 6 6 7 9 11 12 14 15 15 15 14 13 12 12 11 9 8 7 7 7 7 8 8 9 10 11 12 13 13 14 14 14 15 16 17 18 18 19 19 20 21 21 21 22 22 22 21 21 21 21 20 20 19
21 20 17 15 13 13 13 10 7 5 5 7 8 7 6 6 5 4 4 4 4 4 5 5 5 5 4 3 4 6 7 9 9 10 10 10 10 11 11 12 13 14 14 14 14 14 13 12 11 11 10 10 10 11 11 12 13 14 15 16 16 17 18 19 19 20 21 22 22 23 23 23 24 24 23 23 23 22 22 21 21 21 20 20 20
23 22 20 17 15 15 15 13 11 10 9 9 11 10 10 9 9 8 7 6 4 4 4 3 4 5 6 6 5 7 9 10 12 13 14 14 13 13 13 13 13 13 14 15 16 16 16 15 14 14 14 14 14 14 14 15 16 17 17 18 19 19 20 22 23 23 24 25 25 25 26 26 25 24 24 23 22 22 21 20 20 21 20 20 20
26 25 23 20 19 18 17 16 16 14 12 12 14 15 14 13 13 12 11 10 9 8 7 6 5 5 7 8 9 9 10 11 13 15 16 17 16 16 16 16 16 16 16 17 18 19 18 17 17 17 17 17 17 18 18 18 19 20 20 21 22 22 22 24 26 27 28 28 26 24 25 25 25 24 24 23 22 21 20 19 18 18 18 18 18
28 28 27 25 24 23 21 21 20 18 16 15 16 18 17 16 15 15 14 13 12 12 11 10 8 8 8 9 10 11 12 13 15 16 17 17 17 18 18 19 19 19 20 22 24 23 21 20 21 21 21 21 22 22 23 23 24 24 24 25 27 27 26 27 28 29 30 29 27 24 21 22 24 24 23 22 21 20 19 18 17 16 16 16 15
30 30 30 29 29 28 27 26 25 23 21 19 20 21 20 18 17 18 18 17 16 14 14 13 12 11 11 11 12 13 13 14 16 18 19 19 19 19 19 20 20 20 20 23 26 26 25 25 25 25 26 26 27 27 27 28 29 30 30 30 30 31 30 29 30 30 30 30 29 26 22 21 23 23 21 18 18 18 19 18 16 15 15 14 13
34 33 33 33 33 33 31 30 29 29 27 25 23 23 24 23 22 21 21 21 20 18 16 15 14 14 14 14 15 15 15 16 17 19 21 23 23 22 22 21 21 20 20 23 25 26 25 26 26 27 28 28 29 29 29 29 31 32 33 33 33 33 31 30 29 28 28 28 30 30 27 23 22 21 19 16 15 17 18 18 16 15 13 12 12
38 37 38 37 37 35 33 33 33 33 32 29 27 26 26 27 27 25 25 25 26 24 21 17 15 14 14 15 17 18 19 20 21 22 24 25 25 25 25 24 23 21 20 22 24 25 26 26 26 27 27 28 28 29 29 30 30 32 33 34 33 33 32 30 29 28 28 27 29 32 32 27 23 20 18 16 14 15 17 19 17 14 12 12 12
Wind_Direction
177 179 181 186 189 192 197 199 196 196 200 205 210 217 221 221 221 219 207 186 167 156 150 143 138 133 131 130 128 126 126 125 122 119 118 117 111 101 87 76 73 81 89 87 83 77 68 58 49 44 42 41 39 37 35 31 29 25 24 24 23 22 21 21 20 20 21 21 22 24 26 28 29 28 28 28 28 28 29 30 32 34 35 38 40
165 170 174 179 184 189 192 192 193 196 201 207 212 212 209 199 186 170 152 141 136 136 137 135 132 130 129 127 125 125 124 122 120 119 119 116 109 98 85 73 70 79 89 89 85 78 68 59 52 46 43 41 38 36 33 29 27 25 23 23 22 21 20 19 18 18 20 21 21 23 24 25 27 28 27 27 28 29 30 29 30 31 32 34 37
160 165 169 173 177 180 182 184 185 186 190 190 186 178 168 157 147 138 132 129 129 131 130 129 127 125 124 123 122 122 121 119 119 120 118 115 107 95 83 72 68 78 91 91 86 76 67 59 52 45 41 39 36 34 31 28 26 25 23 22 21 20 19 17 16 17 18 20 22 25 25 23 24 26 27 27 27 28 30 30 29 30 30 30 32
140 147 150 153 154 154 151 146 142 143 144 142 139 137 134 131 129 127 126 126 125 124 123 122 120 119 119 119 119 119 118 119 119 119 117 112 102 90 81 73 69 79 95 93 84 74 66 58 49 42 37 35 33 31 28 26 25 23 22 22 22 20 18 16 15 16 18 20 24 26 27 25 23 24 25 26 26 26 28 30 30 30 30 28 27
117 119 120 121 121 119 117 115 116 117 116 116 118 121 122 123 124 123 122 121 119 118 117 117 116 116 116 115 115 115 116 118 118 117 115 108 96 84 78 73 71 84 101 96 85 74 65 56 46 38 33 30 28 26 25 25 24 22 22 23 22 20 18 17 16 17 18 22 25 27 27 26 25 23 24 25 25 25 25 28 30 31 31 28 26
105 106 106 107 106 105 105 106 107 108 108 110 114 118 120 120 120 118 116 115 115 114 114 113 113 113 112 112 112 113 114 116 117 115 112 102 86 74 70 72 73 89 108 102 89 78 66 54 43 34 27 24 22 22 23 23 22 22 23 24 23 22 20 19 18 18 20 23 26 27 27 26 26 24 23 24 25 25 24 25 28 30 31 29 27
101 102 103 102 101 100 100 101 103 105 108 111 113 114 113 112 111 111 110 110 110 110 110 110 109 109 109 110 110 111 113 113 114 112 106 91 74 59 57 68 72 90 114 110 95 82 66 52 40 29 21 19 18 19 22 21 20 21 23 25 25 25 24 21 20 21 23 25 26 27 27 26 26 25 24 23 24 26 25 25 26 29 29 29 28
98 100 100 100 99 100 100 102 104 106 107 108 108 108 106 105 103 103 103 104 105 105 105 105 105 105 105 105 105 107 108 109 110 102 89 70 54 43 45 65 72 91 119 116 99 84 67 50 35 23 17 16 16 18 20 19 18 21 24 26 29 29 27 24 23 24 26 27 27 27 27 26 25 25 25 23 23 25 26 25 26 27 27 28 27
95 96 96 97 98 99 101 102 103 103 103 103 102 100 99 99 98 97 97 97 97 98 99 98 99 99 99 99 98 97 96 96 90 70 56 44 38 38 42 58 69 98 124 120 103 87 69 48 31 19 16 15 15 17 18 17 17 20 24 28 32 32 29 27 25 26 28 29 30 30 28 26 24 24 24 23 24 25 26 25 26 27 27 27 27
92 93 94 95 96 97 98 98 99 98 97 96 94 93 93 93 93 93 93 93 92 92 91 89 89 89 88 88 85 80 73 64 53 34 33 31 27 35 35 41 70 110 129 120 104 87 66 42 26 19 16 14 15 17 17 16 16 20 25 29 34 34 31 27 26 28 30 33 35 33 29 24 22 22 22 23 24 26 26 25 26 27 28 29 28
89 91 93 94 95 95 94 94 94 93 92 91 91 91 91 92 92 92 91 90 88 86 83 80 77 76 75 74 70 65 59 50 40 28 28 28 25 33 34 51 90 119 128 114 95 76 52 33 23 20 17 14 14 16 16 16 17 21 25 29 35 36 32 27 25 28 33 37 37 33 28 24 22 21 21 23 25 27 27 26 25 28 30 32 31
87 89 91 93 94 94 94 93 93 92 91 91 91 90 90 89 88 88 87 85 83 80 78 77 76 76 75 74 72 69 66 65 64 63 62 62 62 63 73 88 103 120 121 100 77 55 34 23 22 20 16 14 15 16 17 17 19 22 24 29 35 36 32 27 25 28 35 38 35 30 26 24 24 23 23 25 28 28 28 27 27 29 32 34 33
86 88 89 90 91 91 91 91 91 91 90 89 88 88 87 86 85 84 83 82 81 79 79 78 78 77 76 74 72 69 67 67 68 69 69 70 70 74 83 91 105 116 107 79 54 34 22 20 21 18 15 14 16 17 18 20 22 22 23 28 35 35 31 27 23 26 33 35 31 26 23 23 25 25 27 29 28 28 30 30 31 33 36 35 33
86 87 87 88 88 89 89 89 89 88 87 87 86 86 85 83 82 81 80 79 78 76 75 74 74 73 72 72 70 69 67 69 71 72 72 73 74 77 82 88 99 104 90 60 35 22 18 18 18 16 15 16 17 17 19 23 24 23 24 27 33 33 28 24 22 24 28 31 28 23 20 21 24 27 29 29 27 30 33 33 35 38 38 36 34
83 85 86 86 87 87 87 87 87 87 86 86 84 83 82 81 79 78 78 76 75 73 72 71 70 68 68 69 70 70 70 71 74 75 76 76 77 79 81 85 89 87 70 44 27 19 15 13 13 14 16 17 17 17 20 23 24 22 22 25 29 29 23 19 18 21 25 28 26 22 19 19 22 28 31 29 29 33 37 39 41 42 40 37 37
79 81 83 84 84 85 85 85 85 85 85 85 84 84 83 82 81 80 80 78 77 75 74 73 72 70 69 69 70 70 70 71 73 74 75 76 77 79 81 82 82 74 60 42 28 20 12 9 12 14 15 15 15 17 19 20 21 18 16 20 25 21 15 13 15 18 23 26 25 22 20 20 24 29 32 31 32 37 42 45 46 44 42 42 45
76 78 80 81 82 82 82 82 82 83 83 83 84 84 84 85 85 83 82 80 79 77 75 74 72 71 70 70 70 69 69 70 71 71 72 73 75 76 77 77 76 70 58 45 30 19 12 10 13 12 11 11 12 15 17 17 19 15 11 15 19 14 9 9 13 18 20 22 22 22 22 24 28 33 34 34 36 40 45 48 48 48 47 50 55
74 75 76 77 78 78 79 79 79 79 80 80 81 83 83 83 84 83 81 79 78 76 75 74 73 72 70 70 71 71 70 70 70 70 70 70 70 70 69 68 65 60 50 39 29 20 15 12 10 7 6 8 11 15 15 15 16 14 12 15 16 13 11 13 18 21 24 24 25 26 29 31 34 36 37 37 40 43 46 48 50 52 54 58 63
74 74 73 73 74 75 75 75 74 74 75 76 78 79 80 80 79 79 79 78 76 75 74 74 74 73 71 70 71 72 73 72 71 70 70 69 68 66 64 62 57 52 43 34 25 20 17 12 6 5 6 9 13 17 15 13 14 16 17 19 21 21 21 23 26 30 33 36 36 36 37 38 40 41 41 41 42 45 48 51 54 58 62 66 70
72 73 73 73 73 73 73 73 72 72 71 71 72 73 74 74 74 74 75 74 74 73 73 73 74 73 72 71 71 71 72 73 72 72 71 69 68 66 63 60 57 51 43 32 22 17 15 9 5 7 10 13 16 18 16 15 18 22 26 29 32 34 34 36 38 42 45 46 47 46 44 44 45 45 45 44 45 47 50 54 59 63 67 71 74
72 72 73 73 73 73 73 73 73 72 71 70 69 69 69 68 68 68 69 70 70 71 70 71 72 72 72 71 71 71 70 71 71 72 71 69 67 64 61 58 55 50 43 32 22 18 14 8 7 12 16 19 21 22 22 24 28 34 39 43 45 46 47 48 50 51 52 52 51 51 50 49 49 49 48 47 48 50 54 57 61 65 69 73 75
73 73 73 73 74 74 74 73 73 72 71 70 69 68 67 66 66 65 66 67 67 67 67 67 68 69 69 70 71 70 70 71 71 71 70 68 65 60 56 53 47 42 36 29 24 21 16 11 12 19 24 26 27 29 33 37 42 48 52 55 56 57 57 57 57 56 56 55 55 54 53 53 52 53 52 51 51 53 56 59 63 67 70 73 75
74 74 73 74 74 74 75 74 73 71 69 68 67 66 65 64 64 63 63 64 64 64 64 64 64 64 64 65 66 67 68 69 69 69 67 64 61 56 52 49 43 37 32 29 28 27 24 21 24 29 33 35 38 43 49 53 57 60 63 64 64 64 63 62 62 61 61 59 58 58 57 56 56 56 56 56 55 56 58 61 64 68 71 73 76
76 75 74 73 73 73 73 73 72 70 69 67 65 64 63 62 61 60 60 60 60 60 61 61 61 61 60 60 60 61 62 63 63 62 59 55 51 50 50 49 46 41 37 35 36 38 40 40 41 42 43 47 53 59 64 67 69 69 70 70 69 68 67 67 67 66 65 64 62 61 60 59 59 58 59 59 59 60 61 63 65 68 71 73 75
75 75 74 73 72 71 71 71 70 69 68 66 65 63 62 60 59 58 57 56 56 56 56 57 57 58 59 58 57 57 56 55 54 54 53 51 48 47 49 51 52 51 49 48 48 51 53 54 55 56 57 61 66 71 75 76 76 76 75 75 73 73 73 73 73 71 70 68 67 65 64 62 61 60 60 60 61 61 62 63 65 67 69 71 72
72 72 73 73 72 70 69 68 68 68 67 65 64 62 61 60 58 57 56 55 54 54 55 56 56 57 58 59 59 58 57 56 53 52 52 53 53 53 55 57 59 60 60 60 60 61 62 63 67 70 72 75 79 81 82 82 82 81 80 80 79 79 79 78 77 76 75 73 72 70 69 67 66 64 63 62 62 62 62 63 64 65 67 68 69
69 69 70 70 70 70 68 67 67 67 67 65 64 62 60 60 59 58 57 57 56 55 55 56 57 58 59 60 61 60 60 59 57 56 55 56 58 60 61 64 65 67 68 69 69 70 71 73 77 80 83 86 87 88 87 87 86 86 85 85 84 84 84 83 82 81 79 78 76 75 74 72 71 70 69 67 66 65 64 63 64 64 65 66 67
69 68 68 68 68 69 68 67 66 66 67 66 65 64 62 60 59 58 58 58 57 57 56 56 57 58 59 59 60 59 59 60 59 59 59 59 61 63 65 68 70 72 73 74 76 78 80 83 86 88 90 91 92 91 91 91 91 90 90 89 88 88 88 87 86 84 82 81 80 79 78 77 76 74 73 72 71 69 68 66 66 65 64 64 65
70 69 68 67 67 67 67 66 65 64 65 65 66 65 64 62 60 59 58 57 57 58 57 58 57 57 58 59 59 59 58 59 59 59 60 61 62 65 67 70 73 76 78 80 83 86 88 91 93 94 95 96 96 95 95 95 94 93 93 92 91 91 90 89 87 85 84 83 81 80 79 78 77 76 74 73 72 71 70 70 69 68 67 66 65
70 70 69 67 66 65 65 64 64 62 61 62 63 64 64 63 61 59 58 56 55 55 56 57 58 58 58 59 60 60 60 59 59 59 60 62 64 67 70 74 77 80 84 87 90 92 95 97 98 100 100 101 100 99 98 97 96 95 94 94 94 93 91 89 87 86 84 82 81 79 78 77 76 75 74 73 72 71 71 70 70 70 70 69 68
69 69 69 68 66 64 63 62 62 61 59 58 59 60 61 61 61 59 58 57 54 53 53 54 55 56 57 58 60 61 62 63 62 62 62 64 68 71 75 79 83 86 90 93 96 98 100 102 104 105 105 105 104 102 101 99 97 96 95 94 93 91 90 88 86 84 81 79 78 76 74 73 73 73 72 71 70 69 69 69 69 69 69 69 69
72 71 70 68 66 64 62 60 60 59 58 57 56 56 58 59 59 59 58 57 55 54 52 52 52 53 55 57 59 61 63 65 66 67 68 70 73 77 81 85 88 92 95 98 101 104 106 108 109 109 109 108 106 104 102 99 96 94 92 91 90 88 87 86 84 81 78 76 74 72 71 71 71 71 70 70 69 68 68 68 68 67 67 67 67
70 74 74 72 70 67 63 60 59 57 57 56 55 54 54 55 56 57 58 56 55 54 53 53 53 53 54 56 58 61 63 66 68 71 74 77 80 83 87 90 93 96 100 103 106 109 111 112 112 111 111 109 107 105 102 99 94 91 89 88 86 85 83 81 78 73 70 68 67 66 66 65 65 66 67 68 68 67 68 68 68 67 67 67 67
60 65 71 74 74 72 69 65 61 58 56 55 54 53 52 52 53 55 56 56 55 54 53 53 53 55 57 58 60 63 65 67 70 74 77 82 85 89 93 96 99 102 105 107 109 111 113 114 114 112 111 109 107 105 103 99 94 89 87 85 82 80 77 73 69 64 61 60 59 59 58 58 57 58 59 60 60 61 62 63 62 62 63 65 65
61 57 59 65 70 72 73 72 68 63 59 56 55 54 51 51 51 53 55 56 56 55 54 54 54 56 60 63 65 67 70 72 74 78 82 86 91 95 99 102 105 108 110 112 113 114 115 116 116 114 111 110 108 106 104 100 95 90 85 82 78 74 71 66 62 58 54 52 52 51 51 50 50 50 50 50 50 51 52 52 51 52 53 55 57
74 67 59 57 60 64 67 71 72 70 66 61 58 56 54 52 51 52 53 55 56 56 55 55 57 59 62 67 71 73 77 80 82 85 88 91 96 100 105 109 112 114 116 117 118 119 119 119 117 115 112 109 107 105 103 99 95 90 84 79 75 71 66 61 57 52 48 45 45 44 43 42 42 42 42 42 42 42 42 42 42 43 44 46 46
77 78 77 68 60 58 59 63 68 70 71 68 63 60 58 55 54 53 53 54 55 55 55 56 59 62 66 71 77 81 85 88 91 93 96 98 101 105 109 113 116 119 121 122 123 123 122 119 116 113 110 107 103 99 96 92 87 83 80 76 72 67 63 57 52 47 42 39 37 36 35 33 33 33 33 33 33 33 33 33 34 35 36 37 37
57 72 83 86 79 68 59 57 61 66 69 71 69 65 63 60 57 55 54 53 54 53 53 54 57 63 70 77 83 88 93 97 100 102 104 106 108 111 114 116 119 122 124 126 127 126 124 121 117 112 108 103 100 97 93 85 75 71 72 70 65 59 53 45 40 37 34 31 29 28 27 25 24 23 22 22 23 23 23 23 24 26 27 28 29
349 29 66 87 89 80 69 59 58 63 68 72 72 69 67 64 61 59 57 55 53 52 51 50 51 58 70 82 91 97 101 105 109 112 113 115 117 118 120 122 124 126 128 130 131 131 129 127 124 120 114 107 103 100 96 86 71 61 60 58 51 44 37 30 25 24 23 23 22 20 19 18 16 14 13 12 12 13 13 14 14 15 16 18 19
303 323 357 57 86 84 74 62 53 56 66 73 74 71 69 68 66 63 61 58 56 53 50 47 46 49 60 78 96 105 110 114 117 121 124 125 127 128 129 131 133 133 134 135 136 136 135 134 133 131 126 122 117 111 105 97 77 58 49 44 35 27 21 17 14 12 12 13 13 11 10 10 9 8 6 4 3 3 3 3 4 4 4 6 7
271 291 304 318 44 74 69 58 42 35 46 65 76 75 71 70 71 70 66 62 59 56 52 48 43 39 42 54 84 107 118 125 128 130 133 135 137 137 138 140 142 142 141 140 140 140 140 141 141 142 140 136 132 125 111 90 59 27 16 15 12 7 3 1 359 358 358 360 0 360 360 1 1 0 359 358 356 355 354 354 353 353 353 354 355
244 260 274 280 288 326 28 38 25 3 359 22 62 77 75 69 66 69 71 67 62 57 52 49 43 34 25 21 31 90 127 137 142 143 143 145 146 147 147 149 152 152 151 151 151 149 148 149 151 156 159 161 165 177 269 318 328 328 328 330 335 339 340 340 340 341 342 344 344 345 346 347 349 349 349 348 347 346 345 345 345 344 344 345 345
231 236 246 254 260 268 277 307 353 351 323 310 320 29 67 68 60 57 60 64 64 60 53 47 41 30 7 339 319 291 256 200 175 168 163 161 159 158 159 160 162 165 166 167 168 169 170 174 178 187 199 219 247 266 279 291 300 304 306 308 311 316 320 322 324 326 329 330 331 332 333 333 335 338 339 338 337 336 336 336 336 336 336 337 338
236 239 241 243 247 257 263 270 297 325 302 288 286 294 315 355 33 40 42 45 49 52 48 41 33 21 350 288 276 271 267 262 249 228 208 194 185 179 177 175 175 177 180 184 189 194 199 203 208 215 227 239 253 264 273 282 288 293 297 300 304 308 311 315 319 322 323 324 324 324 326 326 326 328 331 331 329 328 327 327 327 327 327 328 330
245 248 248 246 246 252 256 257 260 261 264 271 274 277 287 296 310 332 355 11 21 27 28 25 14 359 341 297 265 257 255 258 261 257 250 238 225 215 208 202 199 199 201 204 207 209 212 216 222 229 239 247 252 257 265 274 281 286 290 295 299 303 307 310 313 316 318 319 319 319 320 320 320 321 323 324 324 323 321 321 320 319 319 319 321
247 250 250 247 244 246 248 246 245 244 244 250 257 264 273 284 294 302 303 303 312 327 337 343 339 330 326 315 291 269 257 254 253 254 254 254 252 249 246 240 233 228 227 226 224 223 224 229 236 243 247 251 255 259 262 267 274 279 284 289 292 294 299 303 306 308 310 311 312 311 312 314 314 315 316 317 317 316 314 314 313 311 310 311 314
244 248 250 246 245 247 246 242 241 242 240 241 247 251 257 268 279 287 289 288 287 287 293 300 305 310 309 308 304 295 283 273 264 258 254 253 254 256 258 258 256 254 253 251 246 241 239 242 248 253 254 255 258 264 267 269 272 276 280 284 289 291 292 295 299 302 305 307 308 307 306 307 310 311 311 311 310 308 305 303 302 299 297 300 304
244 247 247 245 247 250 249 244 241 241 241 243 247 249 248 254 263 269 274 280 281 280 281 282 287 294 295 294 295 296 295 292 286 281 274 267 261 258 257 256 256 257 259 259 257 255 254 254 256 257 259 261 263 267 271 274 276 279 280 282 287 290 291 292 295 298 301 303 307 310 308 305 307 310 309 307 306 304 300 295 292 285 281 285 292
243 246 246 245 247 250 251 248 243 241 242 243 245 249 250 249 251 253 257 264 272 276 280 281 282 285 286 285 283 284 288 291 292 293 293 289 282 275 269 264 260 259 261 263 263 262 262 260 259 260 261 264 266 269 273 275 277 280 282 283 285 288 290 291 292 295 298 299 304 310 312 310 309 310 308 304 303 301 299 297 292 279 270 271 277
236 241 243 244 245 248 251 252 246 241 240 239 239 244 247 246 246 245 246 252 259 266 273 279 281 282 282 281 278 276 276 278 283 289 293 293 292 288 284 279 274 270 269 269 271 272 271 268 266 266 266 267 269 272 275 277 279 282 284 284 285 286 288 290 290 291 293 295 299 305 309 311 311 308 304 300 298 297 298 299 295 281 267 264 268
231 233 236 238 241 244 249 253 250 243 236 232 233 238 245 247 246 245 245 247 252 257 261 268 275 277 280 280 277 274 272 271 273 278 284 287 289 288 287 286 284 281 278 276 277 278 279 278 277 276 275 276 277 278 280 282 283 285 286 286 287 287 288 289 289 289 291 292 294 299 303 306 306 304 299 293 291 293 296 299 298 286 273 269 269
Height
10960 10960 10960 10960 10960 10960 10961 10962 10962 10963 10963 10964 10964 10965 10965 10965 10965 10965 10965 10965 10965 10965 10965 10965 10964 10964 10964 10964 10964 10965 10966 10966 10967 10968 10968 10969 10969 10969 10969 10969 10969 10968 10968 10968 10967 10967 10967 10967 10966 10966 10965 10963 10962 10961 10959 10958 10956 10955 10953 10951 10949 10947 10945 10943 10941 10940 10938 10937 10935 10933 10932 10931 10929 10927 10926 10924 10923 10921 10919 10917 10915 10913 10911 10910 10908
10959 10959 10959 10959 10960 10961 10961 10962 10963 10963 10964 10964 10965 10965 10964 10964 10964 10964 10965 10965 10965 10965 10966 10965 10965 10965 10965 10966 10966 10967 10967 10968 10969 10969 10970 10970 10970 10970 10970 10970 10970 10969 10969 10969 10969 10969 10968 10968 10967 10967 10966 10964 10963 10962 10960 10959 10957 10956 10954 10952 10950 10948 10946 10944 10942 10941 10939 10937 10936 10934 10933 10931 10930 10928 10927 10925 10924 10922 10920 10919 10917 10915 10913 10911 10909
10960 10960 10960 10961 10961 10962 10962 10963 10963 10964 10964 10964 10964 10964 10964 10964 10964 10965 10965 10966 10966 10966 10966 10966 10967 10967 10967 10968 10968 10969 10969 10970 10970 10971 10971 10972 10972 10971 10971 10971 10971 10971 10971 10971 10970 10970 10970 10969 10969 10968 10967 10966 10964 10963 10961 10960 10958 10957 10955 10953 10951 10949 10947 10945 10943 10942 10940 10938 10937 10936 10934 10932 10931 10929 10927 10926 10924 10923 10921 10920 10918 10916 10914 10913 10911
10961 10962 10962 10963 10963 10963 10963 10963 10964 10964 10964 10964 10964 10964 10965 10965 10965 10966 10966 10967 10967 10968 10968 10968 10969 10969 10969 10970 10970 10971 10971 10972 10972 10973 10973 10973 10973 10972 10972 10972 10972 10972 10972 10972 10972 10971 10971 10971 10970 10969 10968 10967 10965 10964 10962 10961 10959 10958 10956 10954 10952 10950 10948 10946 10945 10943 10941 10939 10938 10936 10935 10933 10932 10930 10928 10927 10925 10923 10922 10920 10919 10917 10915 10914 10912
10963 10964 10964 10964 10964 10964 10964 10964 10965 10965 10965 10965 10966 10966 10966 10967 10967 10967 10967 10968 10968 10969 10970 10970 10971 10971 10972 10972 10972 10973 10973 10973 10974 10974 10974 10974 10974 10973 10973 10973 10973 10973 10973 10973 10973 10973 10972 10972 10971 10971 10969 10968 10966 10965 10963 10962 10960 10959 10957 10955 10953 10951 10949 10948 10946 10944 10942 10940 10939 10937 10936 10934 10932 10931 10929 10927 10926 10924 10923 10921 10919 10918 10916 10914 10913
10966 10966 10966 10966 10966 10965 10965 10966 10966 10966 10967 10967 10968 10969 10969 10969 10969 10969 10969 10969 10970 10971 10972 10972 10973 10973 10974 10974 10974 10975 10975 10975 10975 10975 10975 10975 10975 10974 10974 10974 10974 10974 10974 10974 10974 10974 10974 10973 10973 10972 10970 10969 10967 10966 10964 10963 10961 10959 10958 10956 10954 10952 10950 10948 10947 10945 10943 10941 10939 10938 10936 10935 10933 10932 10930 10928 10927 10925 10923 10922 10920 10918 10917 10915 10913
10968 10968 10968 10968 10967 10967 10967 10968 10968 10969 10969 10970 10971 10971 10971 10972 10972 10972 10971 10972 10972 10973 10974 10974 10974 10975 10975 10976 10976 10976 10977 10977 10976 10976 10976 10976 10976 10975 10975 10975 10975 10974 10974 10975 10975 10975 10975 10974 10974 10972 10971 10970 10968 10967 10965 10964 10962 10960 10959 10957 10955 10953 10951 10950 10948 10946 10944 10942 10940 10939 10937 10936 10934 10932 10931 10929 10927 10926 10924 10922 10920 10919 10917 10915 10913
10971 10971 10970 10970 10970 10970 10970 10971 10971 10972 10972 10973 10973 10974 10974 10974 10974 10975 10974 10974 10975 10975 10976 10976 10976 10977 10977 10977 10978 10978 10978 10978 10978 10977 10977 10977 10976 10976 10976 10976 10976 10975 10975 10975 10975 10976 10975 10975 10974 10973 10972 10971 10969 10968 10966 10965 10963 10961 10960 10958 10956 10954 10953 10951 10949 10947 10945 10943 10941 10939 10938 10936 10935 10933 10931 10930 10928 10926 10924 10923 10921 10919 10917 10915 10914
10974 10973 10973 10973 10973 10973 10974 10974 10975 10975 10976 10976 10976 10976 10977 10977 10977 10977 10977 10978 10977 10978 10978 10978 10978 10979 10979 10979 10979 10979 10979 10979 10979 10978 10978 10977 10977 10977 10976 10976 10976 10976 10976 10976 10976 10976 10976 10976 10975 10974 10972 10971 10970 10968 10967 10966 10964 10962 10961 10959 10957 10955 10953 10952 10950 10948 10946 10944 10942 10940 10939 10937 10935 10934 10932 10930 10928 10927 10925 10923 10921 10919 10917 10916 10914
10977 10976 10976 10976 10976 10977 10977 10977 10978 10978 10978 10979 10979 10979 10979 10980 10980 10980 10980 10980 10980 10980 10980 10980 10980 10980 10980 10980 10980 10979 10979 10979 10979 10978 10978 10977 10977 10977 10977 10977 10977 10977 10977 10977 10977 10977 10977 10976 10975 10974 10973 10972 10971 10969 10968 10966 10965 10963 10961 10959 10958 10956 10954 10952 10951 10948 10947 10945 10943 10942 10940 10938 10936 10934 10932 10931 10929 10927 10926 10923 10921 10919 10918 10916 10914
10979 10979 10979 10979 10979 10979 10979 10980 10980 10980 10980 10981 10981 10982 10982 10983 10983 10982 10982 10982 10982 10981 10981 10981 10981 10981 10980 10980 10980 10979 10979 10979 10979 10978 10978 10977 10977 10977 10977 10977 10977 10978 10978 10978 10978 10978 10978 10977 10976 10975 10974 10973 10971 10970 10968 10967 10966 10964 10962 10960 10958 10957 10955 10953 10952 10950 10948 10946 10945 10943 10941 10939 10937 10935 10933 10931 10929 10928 10926 10924 10922 10920 10918 10916 10915
10982 10982 10982 10981 10981 10981 10981 10981 10982 10982 10982 10983 10983 10984 10984 10985 10984 10984 10984 10984 10983 10983 10982 10982 10982 10981 10981 10980 10980 10980 10979 10979 10979 10978 10978 10977 10977 10977 10978 10978 10979 10979 10980 10980 10980 10980 10979 10978 10977 10976 10975 10973 10972 10971 10969 10968 10966 10964 10962 10961 10959 10958 10956 10955 10953 10951 10949 10948 10946 10944 10943 10941 10939 10936 10934 10932 10930 10928 10926 10924 10922 10920 10918 10917 10915
10986 10985 10985 10984 10984 10984 10984 10984 10984 10984 10984 10984 10985 10985 10986 10986 10986 10986 10985 10985 10984 10984 10984 10983 10983 10982 10982 10981 10981 10980 10980 10980 10979 10979 10979 10978 10978 10979 10979 10979 10980 10981 10982 10982 10982 10981 10980 10979 10978 10977 10975 10974 10973 10972 10970 10969 10967 10965 10963 10962 10960 10959 10958 10956 10954 10953 10951 10949 10947 10946 10944 10942 10940 10937 10935 10933 10931 10929 10927 10925 10923 10921 10919 10917 10915
10990 10989 10988 10988 10987 10987 10987 10986 10986 10986 10986 10986 10986 10987 10987 10987 10987 10987 10987 10986 10986 10985 10985 10985 10984 10984 10983 10982 10982 10982 10981 10981 10980 10980 10980 10979 10980 10980 10981 10981 10982 10983 10983 10983 10983 10982 10981 10980 10979 10977 10976 10975 10974 10973 10971 10969 10968 10966 10965 10963 10961 10960 10959 10957 10956 10954 10952 10950 10949 10947 10945 10943 10941 10939 10936 10934 10932 10929 10927 10925 10923 10921 10919 10918 10916
10993 10992 10992 10991 10991 10991 10990 10989 10989 10989 10988 10988 10988 10988 10988 10988 10988 10988 10988 10988 10987 10987 10987 10986 10986 10985 10985 10984 10983 10983 10983 10982 10982 10981 10981 10981 10981 10982 10982 10983 10984 10984 10984 10984 10984 10983 10982 10981 10980 10978 10977 10976 10975 10974 10972 10970 10969 10968 10966 10964 10963 10961 10960 10958 10957 10955 10954 10952 10950 10948 10947 10945 10943 10940 10937 10935 10932 10930 10928 10926 10924 10922 10920 10918 10917
10997 10996 10995 10995 10994 10994 10993 10992 10992 10992 10991 10991 10991 10990 10990 10990 10990 10990 10990 10990 10989 10989 10988 10988 10987 10987 10987 10986 10985 10985 10984 10984 10984 10983 10983 10983 10983 10983 10984 10984 10985 10985 10985 10985 10985 10984 10983 10982 10980 10979 10978 10977 10976 10974 10973 10971 10970 10969 10967 10965 10964 10962 10961 10960 10958 10957 10955 10953 10952 10950 10948 10946 10944 10941 10938 10936 10933 10930 10928 10926 10924 10923 10921 10919 10917
11000 10999 10999 10998 10997 10996 10996 10995 10995 10995 10994 10994 10994 10993 10993 10993 10993 10993 10992 10991 10991 10990 10990 10989 10989 10989 10988 10988 10987 10987 10986 10986 10985 10985 10985 10985 10985 10985 10986 10986 10986 10986 10986 10986 10985 10984 10983 10982 10981 10980 10979 10978 10977 10975 10974 10972 10971 10970 10968 10966 10965 10963 10962 10961 10959 10958 10956 10954 10953 10951 10950 10947 10945 10942 10939 10937 10934 10931 10929 10927 10925 10923 10922 10920 10919
11003 11003 11002 11001 10999 10999 10998 10998 10998 10997 10997 10997 10997 10996 10996 10996 10995 10994 10993 10993 10992 10991 10991 10991 10990 10990 10990 10989 10989 10988 10988 10987 10987 10987 10987 10986 10987 10987 10987 10987 10987 10987 10987 10986 10986 10985 10984 10983 10982 10981 10980 10979 10977 10976 10974 10973 10972 10970 10969 10967 10966 10964 10963 10962 10960 10959 10957 10956 10954 10953 10951 10948 10946 10943 10941 10938 10935 10933 10930 10928 10926 10924 10923 10922 10920
11006 11005 11004 11003 11002 11001 11001 11000 11000 11000 11000 11000 10999 10998 10998 10998 10997 10996 10995 10994 10993 10992 10992 10992 10991 10991 10991 10990 10990 10989 10989 10989 10988 10988 10988 10988 10988 10988 10988 10988 10988 10988 10987 10987 10987 10986 10985 10984 10983 10982 10981 10980 10978 10977 10975 10974 10972 10971 10970 10968 10967 10965 10964 10963 10961 10960 10959 10957 10955 10954 10952 10950 10947 10945 10942 10940 10937 10935 10932 10930 10928 10926 10925 10923 10922
11008 11006 11005 11004 11004 11003 11003 11003 11002 11002 11002 11002 11001 11000 11000 10999 10998 10997 10996 10995 10994 10994 10993 10993 10992 10992 10992 10992 10991 10991 10990 10990 10989 10989 10989 10989 10989 10989 10989 10989 10989 10988 10988 10988 10987 10986 10986 10985 10984 10983 10982 10980 10979 10977 10976 10975 10973 10972 10971 10969 10968 10967 10966 10965 10963 10962 10961 10959 10957 10955 10953 10951 10949 10946 10944 10942 10940 10937 10934 10932 10930 10928 10927 10926 10925
11010 11009 11007 11006 11006 11006 11005 11005 11004 11004 11004 11003 11003 11002 11001 11000 10999 10998 10997 10996 10995 10995 10994 10994 10993 10993 10993 10992 10992 10991 10991 10990 10990 10990 10990 10990 10990 10990 10990 10990 10989 10989 10989 10988 10988 10987 10986 10986 10985 10984 10982 10981 10980 10978 10977 10975 10974 10973 10972 10971 10970 10969 10968 10967 10966 10965 10963 10961 10959 10957 10955 10953 10951 10949 10946 10945 10942 10940 10937 10935 10933 10931 10930 10929 10928
11012 11011 11010 11009 11008 11008 11008 11007 11006 11006 11005 11004 11004 11003 11002 11001 11000 10999 10998 10997 10997 10996 10995 10995 10994 10994 10993 10993 10992 10992 10992 10991 10991 10991 10991 10991 10991 10991 10991 10990 10990 10990 10989 10989 10988 10987 10987 10986 10985 10984 10983 10982 10980 10979 10978 10977 10976 10975 10974 10973 10972 10971 10970 10969 10969 10968 10966 10963 10961 10959 10958 10956 10954 10952 10949 10948 10946 10943 10941 10938 10936 10934 10933 10932 10931
11014 11013 11013 11012 11011 11010 11010 11009 11008 11007 11006 11006 11005 11004 11003 11003 11002 11001 11000 10999 10998 10997 10996 10996 10995 10995 10994 10994 10993 10993 10992 10992 10992 10992 10992 10992 10992 10991 10991 10991 10991 10990 10990 10989 10988 10988 10987 10987 10986 10985 10984 10982 10981 10981 10980 10979 10978 10977 10976 10975 10974 10973 10973 10973 10972 10971 10969 10966 10964 10962 10961 10959 10957 10955 10953 10951 10949 10947 10945 10942 10940 10938 10937 10935 10934
11016 11016 11015 11014 11014 11013 11012 11011 11010 11009 11008 11007 11006 11006 11005 11004 11003 11002 11001 11000 10999 10998 10997 10997 10996 10995 10995 10994 10994 10994 10994 10993 10993 10993 10993 10993 10992 10992 10992 10991 10991 10991 10990 10990 10989 10989 10988 10987 10987 10986 10985 10983 10983 10982 10982 10981 10980 10979 10979 10978 10977 10977 10976 10976 10976 10974 10972 10970 10968 10966 10964 10962 10961 10959 10957 10955 10954 10951 10949 10947 10945 10943 10941 10939 10938
11018 11018 11017 11016 11016 11015 11014 11012 11011 11010 11009 11009 11008 11007 11006 11005 11005 11004 11003 11002 11001 11000 10999 10998 10997 10997 10996 10996 10995 10995 10995 10994 10994 10994 10994 10993 10993 10993 10993 10992 10991 10991 10990 10990 10990 10989 10989 10988 10987 10987 10986 10985 10985 10985 10984 10984 10983 10982 10982 10982 10981 10980 10980 10980 10979 10978 10976 10974 10972 10970 10968 10966 10964 10962 10961 10959 10958 10956 10954 10952 10949 10947 10945 10944 10942
11020 11020 11019 11018 11017 11016 11015 11014 11013 11012 11011 11010 11010 11009 11008 11007 11006 11006 11005 11004 11003 11002 11001 11000 10999 10998 10998 10997 10997 10996 10996 10995 10995 10995 10994 10994 10994 10994 10993 10993 10992 10991 10991 10990 10990 10990 10989 10989 10989 10989 10988 10988 10988 10987 10987 10987 10986 10986 10986 10986 10985 10985 10985 10984 10984 10982 10980 10978 10976 10975 10973 10971 10969 10967 10966 10964 10962 10960 10958 10956 10954 10952 10950 10948 10947
11022 11022 11021 11020 11019 11018 11017 11016 11015 11014 11013 11012 11012 11011 11010 11009 11008 11008 11007 11006 11005 11004 11003 11002 11001 11000 11000 10999 10998 10998 10997 10997 10996 10996 10995 10995 10995 10994 10994 10993 10993 10992 10992 10991 10991 10991 10991 10991 10991 10991 10991 10991 10991 10991 10991 10990 10990 10990 10990 10990 10989 10989 10989 10989 10988 10987 10985 10983 10982 10980 10979 10977 10975 10973 10972 10970 10968 10966 10964 10962 10959 10957 10955 10954 10952
11024 11024 11023 11022 11021 11020 11019 11018 11017 11016 11015 11015 11014 11013 11012 11012 11011 11010 11009 11009 11008 11007 11006 11005 11004 11003 11002 11001 11001 11000 10999 10998 10998 10997 10997 10996 10996 10996 10995 10995 10994 10994 10993 10993 10993 10993 10993 10994 10994 10995 10995 10995 10995 10995 10995 10995 10994 10994 10994 10994 10994 10994 10994 10993 10993 10991 10989 10988 10987 10986 10984 10983 10981 10980 10978 10977 10974 10972 10970 10968 10965 10963 10961 10959 10958
11026 11025 11025 11024 11023 11022 11021 11020 11019 11019 11018 11017 11016 11015 11015 11014 11013 11012 11012 11011 11010 11009 11008 11007 11006 11005 11004 11004 11003 11002 11001 11000 11000 10999 10999 10998 10998 10997 10997 10996 10996 10996 10996 10996 10996 10996 10996 10997 10998 10999 10999 10999 11000 10999 10999 10999 10999 10999 10999 10999 10999 10999 10999 10998 10997 10996 10994 10994 10993 10991 10990 10989 10987 10985 10984 10983 10981 10979 10977 10975 10972 10970 10968 10965 10964
11027 11027 11026 11026 11025 11024 11023 11023 11022 11021 11020 11019 11018 11018 11017 11017 11016 11015 11014 11013 11012 11011 11010 11009 11008 11008 11007 11006 11006 11005 11004 11003 11002 11002 11001 11001 11000 11000 10999 10999 10999 10999 10999 10999 10999 11000 11000 11001 11002 11003 11003 11004 11004 11004 11004 11004 11004 11004 11004 11004 11004 11004 11003 11003 11001 11000 10999 10999 10998 10996 10995 10994 10992 10991 10990 10989 10987 10985 10984 10981 10979 10977 10975 10973 10970
11029 11028 11028 11027 11027 11026 11025 11025 11024 11023 11022 11022 11021 11020 11020 11019 11018 11017 11016 11015 11015 11014 11013 11012 11011 11010 11009 11009 11008 11008 11007 11006 11006 11005 11005 11004 11003 11003 11003 11003 11003 11003 11003 11003 11004 11004 11005 11005 11006 11007 11008 11008 11008 11009 11009 11009 11009 11008 11008 11008 11008 11008 11008 11007 11006 11005 11004 11003 11002 11001 11000 10998 10997 10996 10995 10994 10992 10991 10989 10987 10986 10984 10982 10979 10977
11029 11029 11028 11028 11028 11027 11027 11026 11026 11025 11024 11023 11023 11022 11022 11021 11020 11019 11018 11018 11017 11017 11016 11015 11014 11013 11012 11012 11011 11011 11010 11009 11009 11009 11008 11008 11007 11007 11007 11007 11007 11007 11008 11008 11009 11009 11010 11011 11011 11012 11012 11013 11013 11013 11013 11013 11013 11013 11013 11013 11012 11012 11011 11010 11009 11009 11008 11007 11006 11005 11003 11002 11001 11000 11000 10998 10997 10996 10994 10992 10991 10990 10988 10986 10984
11030 11030 11029 11029 11028 11028 11028 11027 11027 11026 11026 11025 11024 11024 11024 11023 11022 11022 11021 11020 11020 11019 11019 11018 11017 11016 11016 11015 11015 11014 11013 11013 11013 11012 11012 11012 11011 11011 11011 11011 11011 11012 11012 11013 11014 11014 11015 11016 11016 11017 11017 11017 11017 11017 11017 11017 11017 11017 11017 11016 11016 11015 11014 11013 11013 11012 11011 11010 11009 11008 11007 11006 11005 11004 11003 11002 11001 10999 10998 10997 10996 10995 10993 10991 10989
11031 11031 11030 11029 11029 11028 11028 11028 11028 11028 11027 11027 11026 11026 11025 11025 11024 11024 11023 11023 11022 11022 11021 11021 11020 11020 11019 11019 11018 11018 11017 11017 11016 11016 11016 11016 11015 11015 11015 11015 11015 11016 11016 11017 11018 11019 11020 11020 11021 11021 11021 11021 11021 11021 11020 11020 11020 11020 11020 11019 11019 11018 11017 11016 11015 11015 11014 11012 11011 11010 11009 11009 11008 11007 11006 11005 11004 11003 11001 11000 11000 10999 10997 10995 10994
11032 11032 11031 11031 11030 11029 11029 11029 11029 11029 11029 11028 11028 11028 11028 11027 11026 11026 11025 11025 11024 11024 11024 11024 11023 11023 11022 11022 11022 11021 11021 11020 11020 11020 11020 11019 11019 11019 11019 11019 11019 11019 11020 11020 11021 11022 11023 11023 11024 11024 11024 11024 11024 11024 11023 11023 11023 11023 11022 11022 11021 11021 11020 11019 11018 11017 11016 11015 11014 11013 11012 11012 11011 11010 11009 11007 11006 11005 11004 11003 11002 11001 11000 10999 10998
11032 11032 11032 11032 11031 11031 11030 11030 11030 11030 11029 11029 11030 11029 11029 11029 11029 11028 11028 11027 11027 11026 11026 11026 11026 11026 11026 11025 11025 11025 11024 11024 11023 11023 11023 11023 11023 11023 11023 11023 11023 11023 11023 11023 11024 11024 11025 11026 11026 11027 11027 11027 11027 11027 11026 11026 11026 11025 11025 11024 11024 11023 11022 11022 11021 11020 11019 11018 11017 11016 11015 11015 11014 11012 11011 11010 11009 11008 11007 11006 11005 11004 11002 11001 11000
11031 11031 11031 11032 11032 11032 11031 11031 11031 11031 11030 11030 11030 11030 11031 11031 11031 11030 11030 11029 11029 11029 11029 11028 11028 11028 11028 11028 11028 11028 11028 11027 11027 11026 11026 11026 11025 11025 11025 11026 11026 11026 11026 11026 11027 11027 11028 11028 11029 11029 11029 11029 11029 11029 11029 11029 11028 11027 11027 11026 11026 11025 11024 11024 11023 11022 11022 11021 11020 11019 11018 11017 11016 11015 11014 11013 11012 11011 11010 11009 11007 11006 11005 11004 11003
11031 11031 11031 11031 11031 11032 11032 11032 11032 11032 11032 11031 11031 11031 11031 11032 11032 11032 11032 11031 11031 11031 11031 11031 11031 11031 11031 11030 11030 11030 11030 11030 11030 11029 11029 11029 11028 11028 11028 11028 11028 11028 11029 11029 11029 11030 11030 11031 11031 11032 11032 11032 11032 11031 11031 11030 11030 11029 11028 11028 11027 11027 11026 11026 11025 11024 11024 11023 11022 11022 11021 11020 11019 11018 11017 11016 11015 11014 11012 11011 11010 11009 11007 11006 11005
11031 11031 11031 11031 11031 11031 11032 11033 11033 11033 11033 11033 11032 11032 11032 11032 11032 11033 11033 11033 11033 11033 11033 11033 11034 11033 11033 11033 11033 11032 11032 11032 11032 11032 11031 11031 11031 11031 11030 11030 11030 11031 11031 11031 11032 11032 11033 11033 11033 11033 11033 11033 11033 11032 11032 11032 11031 11031 11030 11030 11029 11028 11028 11027 11027 11026 11025 11025 11024 11024 11023 11022 11021 11020 11019 11018 11017 11016 11015 11014 11012 11011 11010 11008 11007
11031 11031 11031 11031 11031 11031 11031 11032 11033 11034 11034 11034 11033 11033 11033 11033 11033 11033 11033 11034 11034 11034 11034 11035 11035 11036 11036 11036 11035 11035 11034 11034 11033 11033 11033 11033 11033 11033 11033 11033 11033 11033 11033 11033 11033 11034 11034 11034 11034 11034 11034 11034 11033 11033 11033 11032 11032 11032 11032 11031 11030 11030 11029 11029 11028 11028 11027 11026 11026 11025 11025 11024 11023 11022 11021 11020 11019 11017 11016 11015 11014 11013 11012 11010 11009
11030 11030 11031 11031 11031 11030 11030 11031 11033 11034 11034 11034 11034 11034 11034 11033 11033 11033 11033 11033 11034 11034 11035 11035 11036 11037 11038 11038 11038 11037 11036 11036 11035 11034 11034 11034 11034 11034 11034 11034 11035 11035 11035 11035 11035 11035 11035 11035 11035 11035 11034 11034 11034 11034 11034 11033 11033 11033 11032 11032 11032 11031 11030 11030 11029 11029 11028 11028 11027 11026 11026 11025 11024 11023 11022 11021 11020 11019 11018 11016 11015 11014 11013 11012 11011
11028 11029 11030 11031 11031 11031 11030 11030 11031 11033 11034 11034 11034 11034 11034 11034 11034 11033 11033 11033 11033 11034 11034 11035 11036 11037 11038 11039 11039 11039 11039 11038 11037 11036 11035 11035 11035 11035 11035 11035 11035 11035 11035 11035 11035 11035 11035 11035 11035 11035 11035 11035 11035 11034 11034 11034 11033 11033 11033 11032 11032 11031 11031 11030 11029 11029 11028 11028 11027 11027 11026 11025 11025 11024 11023 11022 11021 11019 11018 11017 11016 11015 11014 11013 11012
11026 11027 11028 11029 11030 11030 11030 11030 11031 11032 11033 11034 11034 11034 11034 11034 11034 11034 11034 11033 11033 11033 11034 11034 11035 11036 11037 11039 11039 11040 11040 11040 11039 11038 11037 11036 11036 11035 11035 11035 11035 11035 11035 11035 11035 11035 11035 11036 11036 11036 11036 11036 11035 11035 11035 11034 11034 11033 11033 11032 11032 11031 11031 11030 11030 11029 11028 11028 11027 11026 11026 11025 11024 11024 11023 11022 11021 11020 11019 11018 11016 11015 11014 11013 11012
11024 11025 11027 11028 11028 11029 11030 11030 11030 11031 11032 11033 11033 11034 11034 11034 11034 11035 11035 11034 11034 11033 11033 11033 11034 11035 11036 11038 11039 11039 11040 11040 11040 11039 11038 11038 11037 11036 11036 11035 11035 11035 11035 11035 11035 11035 11035 11035 11035 11035 11035 11035 11035 11035 11034 11034 11033 11033 11032 11032 11031 11031 11030 11030 11029 11029 11028 11027 11026 11026 11025 11024 11023 11023 11022 11021 11020 11019 11018 11017 11016 11015 11014 11013 11012
11022 11023 11025 11026 11026 11027 11028 11029 11030 11030 11030 11031 11031 11032 11033 11033 11033 11034 11034 11035 11034 11034 11033 11033 11033 11034 11035 11036 11037 11038 11039 11039 11039 11039 11039 11038 11038 11037 11036 11036 11035 11035 11035 11035 11035 11035 11035 11035 11035 11035 11035 11034 11034 11034 11034 11033 11033 11032 11032 11031 11031 11030 11029 11029 11028 11028 11027 11026 11025 11024 11024 11023 11022 11021 11021 11020 11019 11018 11017 11017 11016 11015 11014 11013 11012
11019 11020 11022 11023 11024 11025 11026 11026 11027 11028 11028 11028 11029 11030 11030 11031 11031 11032 11032 11033 11033 11033 11033 11032 11032 11032 11033 11035 11036 11036 11037 11038 11038 11038 11038 11038 11037 11037 11037 11036 11036 11035 11034 11034 11034 11033 11034 11034 11034 11034 11034 11033 11033 11032 11032 11032 11031 11031 11030 11030 11030 11029 11029 11028 11027 11027 11026 11026 11025 11024 11022 11021 11021 11020 11019 11019 11018 11016 11015 11015 11014 11013 11013 11012 11011
11015 11016 11018 11020 11020 11021 11022 11023 11024 11025 11025 11025 11026 11026 11027 11028 11029 11029 11030 11030 11031 11031 11032 11031 11031 11031 11032 11033 11034 11035 11035 11036 11036 11036 11036 11036 11036 11036 11036 11036 11035 11035 11034 11033 11032 11032 11032 11033 11033 11032 11032 11032 11031 11031 11030 11030 11029 11029 11029 11028 11027 11027 11027 11026 11025 11025 11024 11024 11024 11023 11022 11020 11019 11019 11018 11016 11016 11014 11013 11013 11013 11012 11011 11011 11010
11011 11012 11014 11016 11016 11017 11018 11019 11021 11021 11021 11022 11023 11023 11024 11025 11026 11026 11027 11028 11028 11029 11029 11029 11029 11029 11030 11030 11031 11032 11033 11034 11034 11033 11034 11034 11034 11034 11034 11034 11033 11033 11033 11031 11030 11030 11031 11031 11031 11030 11030 11030 11029 11029 11028 11028 11027 11027 11027 11026 11025 11025 11025 11024 11023 11023 11022 11021 11020 11021 11021 11020 11018 11017 11016 11015 11014 11012 11011 11010 11010 11010 11010 11010 11010
11007 11008 11009 11011 11012 11013 11015 11016 11017 11017 11018 11019 11020 11021 11022 11022 11022 11022 11023 11024 11025 11025 11026 11026 11026 11027 11027 11028 11029 11030 11031 11032 11032 11031 11031 11031 11032 11032 11031 11031 11031 11031 11030 11028 11027 11028 11029 11029 11029 11028 11027 11027 11027 11026 11026 11026 11025 11024 11024 11024 11023 11022 11022 11022 11022 11021 11020 11019 11017 11017 11017 11018 11016 11015 11014 11014 11012 11011 11010 11009 11008 11008 11008 11009 11009
11003 11004 11005 11006 11008 11009 11011 11012 11012 11013 11014 11015 11016 11017 11018 11019 11019 11018 11019 11020 11021 11022 11023 11023 11023 11023 11024 11025 11025 11026 11028 11029 11029 11029 11028 11028 11029 11029 11029 11029 11028 11029 11028 11026 11025 11025 11025 11026 11026 11026 11025 11025 11025 11024 11024 11023 11022 11021 11021 11021 11021 11020 11020 11020 11020 11019 11018 11017 11015 11013 11013 11014 11014 11013 11012 11012 11011 11010 11008 11008 11007 11007 11007 11008 11008
10998 10999 10999 11000 11003 11005 11007 11007 11007 11008 11010 11011 11012 11013 11014 11014 11015 11015 11015 11015 11016 11017 11019 11020 11020 11020 11020 11021 11022 11023 11024 11025 11026 11026 11025 11025 11025 11026 11026 11026 11026 11026 11025 11024 11023 11022 11022 11022 11022 11023 11023 11023 11023 11022 11022 11021 11020 11019 11018 11017 11017 11017 11017 11017 11018 11017 11017 11017 11015 11011 11010 11011 11011 11011 11010 11009 11009 11009 11007 11006 11006 11006 11006 11007 11007